| time (UTC) | temp F | wind direction | speed MPH | gust MPH | rain 1hr in | rain 24hr in | rain mn in | humidity % | barometer mb |
| 20260506213040 | 73 | 274 | 0.0 | 0.0 | 0.00 | 0.00 | 0.00 | 57 | 1015.1 |
| 20260506211538 | 74 | 304 | 0.0 | 0.0 | 0.00 | 0.00 | 0.00 | 56 | 1015.2 |
| 20260506210037 | 73 | 273 | 0.0 | 0.0 | 0.00 | 0.00 | 0.00 | 56 | 1015.1 |
| 20260506204537 | 73 | 280 | 0.0 | 0.0 | 0.00 | 0.00 | 0.00 | 57 | 1015.3 |
| 20260506203038 | 74 | 293 | 0.0 | 0.0 | 0.00 | 0.00 | 0.00 | 56 | 1015.3 |
| 20260506201537 | 74 | 254 | 0.0 | 0.0 | 0.00 | 0.00 | 0.00 | 54 | 1015.3 |
| 20260506200030 | 74 | 267 | 0.0 | 0.0 | 0.00 | 0.00 | 0.00 | 54 | 1015.4 |
| 20260506194526 | 74 | 219 | 0.0 | 0.0 | 0.00 | 0.00 | 0.00 | 54 | 1015.6 |
| 20260506193022 | 73 | 319 | 0.0 | 0.0 | 0.00 | 0.00 | 0.00 | 54 | 1015.7 |
| 20260506191522 | 73 | 263 | 0.0 | 0.0 | 0.00 | 0.00 | 0.00 | 53 | 1015.9 |
| 20260506190018 | 72 | 278 | 0.0 | 0.0 | 0.00 | 0.00 | 0.00 | 54 | 1016.1 |
| 20260506184516 | 72 | 294 | 0.0 | 0.0 | 0.00 | 0.00 | 0.00 | 54 | 1016.2 |
| 20260506183012 | 71 | 241 | 0.0 | 0.0 | 0.00 | 0.00 | 0.00 | 55 | 1016.4 |
| 20260506181508 | 70 | 198 | 0.0 | 0.0 | 0.00 | 0.00 | 0.00 | 58 | 1016.6 |
| 20260506180007 | 68 | 338 | 0.0 | 0.0 | 0.00 | 0.00 | 0.00 | 60 | 1016.8 |
| 20260506174502 | 68 | 317 | 0.0 | 0.0 | 0.00 | 0.06 | 0.00 | 61 | 1016.9 |
| 20260506173129 | 67 | 42 | 0.0 | 0.0 | 0.00 | 0.06 | 0.00 | 64 | 1017.1 |
| 20260506171601 | 65 | 355 | 0.0 | 0.0 | 0.00 | 0.06 | 0.00 | 67 | 1017.2 |
| 20260506170049 | 63 | 309 | 0.0 | 0.0 | 0.00 | 0.06 | 0.00 | 70 | 1017.2 |
| 20260506164554 | 62 | 288 | 0.0 | 0.0 | 0.00 | 0.06 | 0.00 | 74 | 1017.1 |
| 20260506163043 | 61 | 265 | 0.0 | 0.0 | 0.00 | 0.06 | 0.00 | 79 | 1017.3 |
| 20260506161538 | 59 | 140 | 0.0 | 0.0 | 0.00 | 0.06 | 0.00 | 86 | 1017.3 |
| 20260506160033 | 57 | 220 | 0.0 | 0.0 | 0.00 | 0.06 | 0.00 | 90 | 1017.3 |
| 20260506154530 | 55 | 184 | 0.0 | 0.0 | 0.00 | 0.06 | 0.00 | 92 | 1017.4 |
| 20260506153025 | 54 | 202 | 0.0 | 0.0 | 0.00 | 0.06 | 0.00 | 92 | 1017.4 |
| 20260506151527 | 53 | 252 | 0.0 | 0.0 | 0.00 | 0.06 | 0.00 | 93 | 1017.6 |
| 20260506150023 | 52 | 248 | 0.0 | 0.0 | 0.00 | 0.06 | 0.00 | 92 | 1017.6 |
| 20260506144519 | 52 | 243 | 0.0 | 0.0 | 0.00 | 0.11 | 0.00 | 92 | 1017.6 |
| 20260506143024 | 51 | 245 | 0.0 | 0.0 | 0.00 | 0.11 | 0.00 | 92 | 1017.5 |
| 20260506141517 | 51 | 252 | 0.0 | 0.0 | 0.00 | 0.11 | 0.00 | 92 | 1017.5 |
| 20260506140016 | 50 | 287 | 0.0 | 0.0 | 0.00 | 0.11 | 0.00 | 92 | 1017.5 |
| 20260506134513 | 50 | 286 | 0.0 | 0.0 | 0.00 | 0.11 | 0.00 | 91 | 1017.3 |
| 20260506133009 | 49 | 286 | 0.0 | 0.0 | 0.00 | 0.11 | 0.00 | 91 | 1017.2 |
| 20260506131507 | 49 | 286 | 0.0 | 0.0 | 0.00 | 0.11 | 0.00 | 91 | 1017.0 |
| 20260506130007 | 49 | 286 | 0.0 | 0.0 | 0.00 | 0.11 | 0.00 | 91 | 1016.9 |
| 20260506124505 | 49 | 286 | 0.0 | 0.0 | 0.00 | 0.14 | 0.00 | 90 | 1016.8 |
| 20260506123003 | 49 | 286 | 0.0 | 0.0 | 0.00 | 0.14 | 0.00 | 90 | 1016.7 |
| 20260506121502 | 49 | 286 | 0.0 | 0.0 | 0.00 | 0.14 | 0.00 | 90 | 1016.7 |
| 20260506120002 | 49 | 286 | 0.0 | 0.0 | 0.00 | 0.14 | 0.00 | 90 | 1016.6 |
| 20260506114500 | 50 | 286 | 0.0 | 0.0 | 0.00 | 0.14 | 0.00 | 90 | 1016.7 |
| 20260506113059 | 50 | 286 | 0.0 | 0.0 | 0.00 | 0.14 | 0.00 | 90 | 1016.6 |
| 20260506111558 | 50 | 286 | 0.0 | 0.0 | 0.00 | 0.14 | 0.00 | 89 | 1016.5 |
| 20260506104557 | 50 | 286 | 0.0 | 0.0 | 0.00 | 0.16 | 0.00 | 89 | 1016.5 |
| 20260506103058 | 50 | 286 | 0.0 | 0.0 | 0.00 | 0.16 | 0.00 | 89 | 1016.4 |
| 20260506101559 | 50 | 286 | 0.0 | 0.0 | 0.00 | 0.16 | 0.00 | 88 | 1016.4 |
| 20260506100109 | 51 | 286 | 0.0 | 0.0 | 0.00 | 0.16 | 0.00 | 88 | 1016.2 |
| 20260506094550 | 51 | 286 | 0.0 | 0.0 | 0.00 | 0.17 | 0.00 | 88 | 1016.2 |
| 20260506093049 | 51 | 286 | 0.0 | 0.0 | 0.00 | 0.17 | 0.00 | 87 | 1016.1 |
| 20260506091545 | 51 | 286 | 0.0 | 0.0 | 0.00 | 0.17 | 0.00 | 86 | 1016.2 |
| 20260506090045 | 52 | 286 | 0.0 | 0.0 | 0.00 | 0.17 | 0.00 | 86 | 1016.3 |
| 20260506084600 | 52 | 286 | 0.0 | 0.0 | 0.00 | 0.31 | 0.00 | 86 | 1016.4 |
| 20260506083038 | 52 | 286 | 0.0 | 0.0 | 0.00 | 0.31 | 0.00 | 86 | 1016.7 |
| 20260506081541 | 53 | 286 | 0.0 | 0.0 | 0.00 | 0.31 | 0.00 | 86 | 1016.8 |
| 20260506073039 | 54 | 285 | 0.0 | 0.0 | 0.00 | 0.33 | 0.00 | 83 | 1016.9 |
| 20260506071526 | 54 | 285 | 0.0 | 0.0 | 0.00 | 0.33 | 0.00 | 83 | 1017.0 |
| 20260506061521 | 56 | 286 | 0.0 | 0.0 | 0.00 | 0.33 | 0.33 | 82 | 1016.6 |
| 20260506044542 | 56 | 286 | 0.0 | 0.0 | 0.00 | 0.33 | 0.33 | 78 | 1016.2 |
| 20260506043013 | 56 | 286 | 0.0 | 0.0 | 0.00 | 0.33 | 0.33 | 77 | 1016.0 |
| 20260506041512 | 56 | 286 | 0.0 | 0.0 | 0.00 | 0.33 | 0.33 | 76 | 1015.9 |
| 20260506040011 | 57 | 286 | 0.0 | 0.0 | 1.24 | 0.43 | 0.33 | 75 | 1015.7 |
| 20260506034523 | 58 | 286 | 0.0 | 0.0 | 0.00 | 0.33 | 0.33 | 74 | 1015.5 |
| 20260506033007 | 58 | 285 | 0.0 | 0.0 | 0.00 | 0.33 | 0.33 | 73 | 1015.2 |
| 20260506031504 | 58 | 290 | 0.0 | 0.0 | 0.00 | 0.33 | 0.33 | 73 | 1015.1 |
| 20260506030003 | 59 | 297 | 0.0 | 0.0 | 0.00 | 0.33 | 0.33 | 71 | 1014.9 |
| 20260506024503 | 60 | 288 | 0.0 | 0.0 | 0.00 | 0.33 | 0.33 | 70 | 1014.7 |
| 20260506023002 | 60 | 304 | 0.0 | 0.0 | 0.00 | 0.33 | 0.33 | 67 | 1014.4 |
| 20260506021501 | 61 | 296 | 0.0 | 0.0 | 0.00 | 0.33 | 0.33 | 66 | 1014.3 |
| 20260506020100 | 62 | 269 | 0.0 | 0.0 | 0.00 | 0.33 | 0.33 | 65 | 1014.2 |
| 20260506014600 | 62 | 274 | 0.0 | 0.0 | 0.00 | 0.33 | 0.33 | 64 | 1014.0 |
| 20260506013059 | 63 | 286 | 0.0 | 0.0 | 0.00 | 0.33 | 0.33 | 61 | 1013.9 |
| 20260506011622 | 64 | 281 | 0.0 | 0.0 | 0.00 | 0.33 | 0.33 | 59 | 1013.9 |
| 20260506004625 | 65 | 277 | 0.0 | 0.0 | 0.00 | 0.33 | 0.33 | 58 | 1013.7 |
| 20260506003110 | 65 | 279 | 0.0 | 0.0 | 0.00 | 0.33 | 0.33 | 60 | 1013.5 |
| 20260506001557 | 64 | 286 | 0.0 | 0.0 | 0.00 | 0.33 | 0.33 | 59 | 1013.6 |
| 20260506000054 | 65 | 306 | 0.0 | 0.0 | 0.00 | 0.33 | 0.33 | 56 | 1013.4 |
| 20260505234622 | 66 | 301 | 0.0 | 0.0 | 0.00 | 0.33 | 0.33 | 55 | 1013.5 |
| 20260505233052 | 65 | 270 | 0.0 | 0.0 | 0.00 | 0.33 | 0.33 | 54 | 1013.5 |
| 20260505231553 | 65 | 308 | 0.0 | 0.0 | 0.00 | 0.33 | 0.33 | 58 | 1013.5 |
| 20260505230052 | 65 | 294 | 0.0 | 0.0 | 0.00 | 0.33 | 0.33 | 52 | 1013.5 |
| 20260505224552 | 65 | 265 | 0.0 | 0.0 | 0.00 | 0.33 | 0.33 | 54 | 1013.7 |
| 20260505223051 | 65 | 290 | 0.0 | 0.0 | 0.00 | 0.33 | 0.33 | 54 | 1013.9 |
| 20260505221550 | 67 | 281 | 0.0 | 0.0 | 0.00 | 0.33 | 0.33 | 51 | 1013.8 |
| 20260505220101 | 67 | 224 | 0.0 | 0.0 | 0.00 | 0.33 | 0.33 | 51 | 1013.8 |
| 20260505214551 | 67 | 291 | 0.0 | 0.0 | 0.00 | 0.33 | 0.33 | 53 | 1014.0 |